Bullhead City, AZ

12:40 AM MST on June 24, 2017 (GMT -0700)
Laughlin-Bullhead International

Weather History for KIFP - September, 2013

Change the Weather History Date:

Sunday, September 8, 2013

  Actual Average Record
Temperature  
Mean Temperature 83 °F -  
Max Temperature 91 °F 100 °F 112 °F (1990)
Min Temperature 75 °F 78 °F 65 °F (1989)
Cooling Degree Days 18    
Growing Degree Days 33 (Base 50)    
Moisture  
Dew Point 64 °F    
Average Humidity 51    
Maximum Humidity 73    
Minimum Humidity 34    
Precipitation  
Precipitation 0.02 in - - ()
Sea Level Pressure  
Sea Level Pressure 29.82 in    
Wind  
Wind Speed 11 mph (North)    
Max Wind Speed 22 mph    
Max Gust Speed 28 mph    
Visibility 10 miles    
Events      
Averages and records for this station are not official NWS values.
T = Trace of Precipitation, MM = Missing Value Source: NWS Daily Summary

Daily Weather History Graph

Daily Weather History Graph

Search for Another Location

Airport or City:

Trip Planner

Search our weather history database for the weather conditions in past years. The results will help you decide how hot, cold, wet, or windy it might be!

Date:

Astronomy

Sep. 08, 2013 Rise Set
Actual Time 6:16 AM MST 6:54 PM MST
Civil Twilight 5:50 AM MST 7:20 PM MST
Nautical Twilight 5:20 AM MST 7:50 PM MST
Astronomical Twilight 4:49 AM MST 8:21 PM MST
Moon 9:28 AM MST (9/8) 8:43 PM MST (9/8)
Length of Visible Light 13h 29m
Length of Day
12h 38m
Waxing Crescent, 12% of the Moon is Illuminated
Sep 8
Waxing Crescent
Sep 12
First Quarter
Sep 19
Full
Sep 26
Last Quarter
Oct 4
New

Hourly Weather History & Observations

Time (MST) Temp. Heat Index Dew Point Humidity Pressure Visibility Wind Dir Wind Speed Gust Speed Precip Events Conditions
12:15 AM 84.2 °F 85.0 °F 62.6 °F 48% 29.85 in 10.0 mi Calm Calm - N/A   Partly Cloudy
12:35 AM 84.2 °F 85.0 °F 62.6 °F 48% 29.85 in 10.0 mi Calm Calm - N/A   Partly Cloudy
12:55 AM 84.2 °F 85.0 °F 62.6 °F 48% 29.85 in 10.0 mi Calm Calm - N/A   Clear
1:15 AM 84.2 °F 85.0 °F 62.6 °F 48% 29.85 in 10.0 mi Calm Calm - N/A   Scattered Clouds
1:35 AM 84.2 °F 85.6 °F 64.4 °F 51% 29.85 in 10.0 mi Calm Calm - N/A   Scattered Clouds
1:55 AM 84.2 °F 86.6 °F 66.2 °F 55% 29.85 in 10.0 mi NNE 5.8 mph - N/A   Mostly Cloudy
2:15 AM 82.4 °F 85.4 °F 68.0 °F 62% 29.85 in 10.0 mi NNE 11.5 mph - N/A   Mostly Cloudy
2:35 AM 82.4 °F 83.9 °F 64.4 °F 54% 29.86 in 8.0 mi NE 10.4 mph - N/A   Mostly Cloudy
2:55 AM 77.0 °F - 66.2 °F 69% 29.87 in 8.0 mi NE 15.0 mph - 0.02 in   Overcast
3:15 AM 77.0 °F - 66.2 °F 69% 29.87 in 10.0 mi NE 15.0 mph - N/A   Overcast
3:35 AM 77.0 °F - 66.2 °F 69% 29.87 in 10.0 mi NE 12.7 mph - N/A   Mostly Cloudy
3:55 AM 77.0 °F - 66.2 °F 69% 29.86 in 10.0 mi NE 15.0 mph - N/A   Mostly Cloudy
4:15 AM 77.0 °F - 66.2 °F 69% 29.87 in 10.0 mi NNE 12.7 mph - N/A   Mostly Cloudy
4:35 AM 77.0 °F - 66.2 °F 69% 29.86 in 10.0 mi North 15.0 mph 19.6 mph N/A   Scattered Clouds
4:55 AM 77.0 °F - 66.2 °F 69% 29.86 in 10.0 mi North 12.7 mph - N/A   Mostly Cloudy
5:15 AM 75.2 °F - 66.2 °F 73% 29.86 in 10.0 mi North 13.8 mph - N/A   Mostly Cloudy
5:35 AM 75.2 °F - 66.2 °F 73% 29.86 in 10.0 mi North 17.3 mph - N/A   Overcast
5:55 AM 77.0 °F - 66.2 °F 69% 29.86 in 10.0 mi North 17.3 mph 23.0 mph N/A   Overcast
6:15 AM 77.0 °F - 66.2 °F 69% 29.86 in 10.0 mi North 16.1 mph - N/A   Overcast
6:35 AM 77.0 °F - 66.2 °F 69% 29.87 in 10.0 mi NNE 16.1 mph - N/A   Overcast
6:55 AM 77.0 °F - 66.2 °F 69% 29.87 in 10.0 mi NNE 17.3 mph - N/A   Overcast
7:15 AM 77.0 °F - 66.2 °F 69% 29.87 in 10.0 mi NNE 17.3 mph 23.0 mph N/A   Mostly Cloudy
7:35 AM 77.0 °F - 66.2 °F 69% 29.87 in 10.0 mi NNE 18.4 mph 25.3 mph N/A   Overcast
7:55 AM 77.0 °F - 66.2 °F 69% 29.88 in 10.0 mi NNE 17.3 mph 24.2 mph N/A   Overcast
8:15 AM 77.0 °F - 66.2 °F 69% 29.88 in 10.0 mi NNE 16.1 mph - N/A   Overcast
8:35 AM 77.0 °F - 66.2 °F 69% 29.88 in 10.0 mi NNE 16.1 mph 20.7 mph N/A   Overcast
8:55 AM 78.8 °F - 66.2 °F 65% 29.88 in 10.0 mi NNE 16.1 mph 20.7 mph N/A   Scattered Clouds
9:15 AM 80.6 °F 82.7 °F 66.2 °F 61% 29.89 in 10.0 mi NNE 19.6 mph 25.3 mph N/A   Scattered Clouds
9:35 AM 80.6 °F 82.3 °F 64.4 °F 58% 29.87 in 10.0 mi North 21.9 mph 26.5 mph N/A   Partly Cloudy
9:55 AM 82.4 °F 84.6 °F 66.2 °F 58% 29.88 in 10.0 mi North 19.6 mph 27.6 mph N/A   Clear
10:15 AM 82.4 °F 83.9 °F 64.4 °F 54% 29.87 in 10.0 mi North 21.9 mph 26.5 mph N/A   Partly Cloudy
10:35 AM 82.4 °F 83.9 °F 64.4 °F 54% 29.88 in 10.0 mi North 17.3 mph 25.3 mph N/A   Mostly Cloudy
10:55 AM 82.4 °F 83.9 °F 64.4 °F 54% 29.87 in 10.0 mi North 19.6 mph - N/A   Overcast
11:15 AM 82.4 °F 83.9 °F 64.4 °F 54% 29.86 in 10.0 mi North 19.6 mph 25.3 mph N/A   Mostly Cloudy
11:35 AM 84.2 °F 85.6 °F 64.4 °F 51% 29.86 in 10.0 mi North 21.9 mph 26.5 mph N/A   Mostly Cloudy
11:55 AM 86.0 °F 87.3 °F 64.4 °F 48% 29.86 in 10.0 mi North 17.3 mph 27.6 mph N/A   Partly Cloudy
12:15 PM 86.0 °F 87.3 °F 64.4 °F 48% 29.85 in 10.0 mi North 18.4 mph 24.2 mph N/A   Clear
12:35 PM 86.0 °F 87.3 °F 64.4 °F 48% 29.84 in 10.0 mi North 19.6 mph 26.5 mph N/A   Clear
12:55 PM 87.8 °F 89.4 °F 64.4 °F 46% 29.84 in 10.0 mi NNW 19.6 mph - N/A   Partly Cloudy
1:15 PM 87.8 °F 89.4 °F 64.4 °F 46% 29.83 in 10.0 mi NNW 20.7 mph - N/A   Partly Cloudy
1:35 PM 89.6 °F 90.1 °F 62.6 °F 40% 29.82 in 10.0 mi NNW 20.7 mph 27.6 mph N/A   Clear
1:55 PM 89.6 °F 90.1 °F 62.6 °F 40% 29.81 in 10.0 mi North 21.9 mph 26.5 mph N/A   Clear
2:15 PM 89.6 °F 90.1 °F 62.6 °F 40% 29.80 in 10.0 mi North 17.3 mph - N/A   Clear
2:35 PM 91.4 °F 92.1 °F 62.6 °F 38% 29.79 in 10.0 mi North 13.8 mph - N/A   Clear
2:55 PM 91.4 °F 92.1 °F 62.6 °F 38% 29.78 in 10.0 mi North 13.8 mph - N/A   Clear
3:15 PM 91.4 °F 91.4 °F 60.8 °F 36% 29.76 in 10.0 mi NNW 16.1 mph - N/A   Clear
3:35 PM 91.4 °F 91.4 °F 60.8 °F 36% 29.75 in 10.0 mi North 16.1 mph - N/A   Clear
3:55 PM 91.4 °F 91.4 °F 60.8 °F 36% 29.75 in 10.0 mi North 18.4 mph - N/A   Clear
4:15 PM 91.4 °F 92.1 °F 62.6 °F 38% 29.75 in 10.0 mi North 13.8 mph - N/A   Clear
4:35 PM 91.4 °F 90.7 °F 59.0 °F 34% 29.75 in 10.0 mi North 15.0 mph - N/A   Clear
4:55 PM 91.4 °F 90.7 °F 59.0 °F 34% 29.74 in 10.0 mi North 15.0 mph 20.7 mph N/A   Clear
5:15 PM 91.4 °F 90.7 °F 59.0 °F 34% 29.74 in 10.0 mi NNW 16.1 mph 19.6 mph N/A   Clear
5:35 PM 91.4 °F 92.1 °F 62.6 °F 38% 29.73 in 10.0 mi NNW 15.0 mph - N/A   Clear
5:55 PM 91.4 °F 92.1 °F 62.6 °F 38% 29.73 in 10.0 mi North 13.8 mph - N/A   Clear
6:15 PM 89.6 °F 90.1 °F 62.6 °F 40% 29.72 in 10.0 mi NNW 13.8 mph - N/A   Clear
6:35 PM 89.6 °F 90.1 °F 62.6 °F 40% 29.73 in 10.0 mi North 11.5 mph - N/A   Clear
6:55 PM 89.6 °F 90.1 °F 62.6 °F 40% 29.73 in 10.0 mi North 11.5 mph - N/A   Clear
7:15 PM 89.6 °F 90.1 °F 62.6 °F 40% 29.73 in 10.0 mi North 11.5 mph - N/A   Clear
7:35 PM 89.6 °F 88.9 °F 59.0 °F 36% 29.73 in 10.0 mi North 9.2 mph - N/A   Clear
7:55 PM 89.6 °F 88.9 °F 59.0 °F 36% 29.74 in 10.0 mi NNE 9.2 mph - N/A   Clear
8:15 PM 87.8 °F 87.1 °F 59.0 °F 38% 29.74 in 10.0 mi NE 9.2 mph - N/A   Clear
8:35 PM 87.8 °F 87.1 °F 59.0 °F 38% 29.75 in 10.0 mi NE 11.5 mph - N/A   Clear
8:55 PM 86.0 °F 85.4 °F 59.0 °F 40% 29.75 in 10.0 mi NE 9.2 mph - N/A   Clear
9:15 PM 86.0 °F 85.4 °F 59.0 °F 40% 29.76 in 10.0 mi NNE 8.1 mph - N/A   Clear
9:35 PM 84.2 °F 85.0 °F 62.6 °F 48% 29.76 in 10.0 mi NNW 6.9 mph - N/A   Clear
9:55 PM 84.2 °F 85.0 °F 62.6 °F 48% 29.76 in 10.0 mi North 4.6 mph - N/A   Clear
10:15 PM 86.0 °F 86.6 °F 62.6 °F 45% 29.77 in 10.0 mi North 8.1 mph - N/A   Clear
10:35 PM 84.2 °F 85.0 °F 62.6 °F 48% 29.77 in 10.0 mi NNW 6.9 mph - N/A   Partly Cloudy
10:55 PM 84.2 °F 85.0 °F 62.6 °F 48% 29.77 in 10.0 mi North 9.2 mph - N/A   Partly Cloudy
11:15 PM 84.2 °F 85.0 °F 62.6 °F 48% 29.77 in 10.0 mi North 8.1 mph - N/A   Clear
11:35 PM 84.2 °F 85.0 °F 62.6 °F 48% 29.77 in 10.0 mi NNE 6.9 mph - N/A   Clear
11:55 PM 84.2 °F 85.0 °F 62.6 °F 48% 29.77 in 10.0 mi NNE 5.8 mph - N/A   Clear